Hourly Data Report for October 27, 2014

All times are specified in Local Standard Time (LST). Add 1 hour to adjust for Daylight Saving Time where and when it is observed.

PENTICTON A
BRITISH COLUMBIA

49°27'45.000" N
119°36'08.000" W
344.40 m
1126146
71889
YYF

Download Data

Hourly Data (October 2014)
Hourly Data Report for October 27, 2014
Temp Definition
°C
Dew Point Temp Definition
°C
Rel Hum Definition
%
Wind Dir Definition
10's deg

Wind Spd Definition
km/h
Visibility Definition
km
Stn Press Definition
kPa
Hmdx Definition


Wind Chill Definition


Weather Definition


TIME
00:00 Legend Double Dagger 5.7 2.0 77 4 3 24.1 97.78     LegendNANA
01:00 Legend Double Dagger 5.9 2.0 76 6 6 24.1 97.83     Cloudy
02:00 Legend Double Dagger 5.3 2.1 80 36 2 24.1 97.86     LegendNANA
03:00 Legend Double Dagger 5.3 2.0 79 36 2 24.1 97.88     LegendNANA
04:00 Legend Double Dagger 5.6 1.7 76 36 2 24.1 97.90     Cloudy
05:00 Legend Double Dagger 4.6 1.8 82 0 1 24.1 97.92     LegendNANA
06:00 Legend Double Dagger 4.7 1.4 79 8 7 24.1 97.92     LegendNANA
07:00 Legend Double Dagger 5.2 1.7 78 36 2 24.1 97.94     Mostly Cloudy
08:00 Legend Double Dagger 7.1 2.4 72 17 11 24.1 97.98     LegendNANA
09:00 Legend Double Dagger 7.8 3.3 73 16 12 24.1 98.01     LegendNANA
10:00 Legend Double Dagger 8.5 2.5 66 16 19 24.1 98.02     Cloudy
11:00 Legend Double Dagger 9.5 2.8 63 15 16 24.1 97.98     LegendNANA
12:00 Legend Double Dagger 11.1 2.5 55 16 16 24.1 97.92     LegendNANA
13:00 Legend Double Dagger 11.1 2.2 54 15 14 24.1 97.83     Mostly Cloudy
14:00 Legend Double Dagger 11.3 0.1 46 15 16 24.1 97.82     LegendNANA
15:00 Legend Double Dagger 11.6 0.1 45 17 19 24.1 97.79     LegendNANA
16:00 Legend Double Dagger 10.9 0.1 47 18 20 24.1 97.80     Mostly Cloudy
17:00 Legend Double Dagger 9.4 -0.2 51 19 11 24.1 97.77     LegendNANA
18:00 Legend Double Dagger 9.9 0.0 50 19 17 24.1 97.76     LegendNANA
19:00 Legend Double Dagger 10.0 0.4 51 19 19 24.1 97.73     Mostly Cloudy
20:00 Legend Double Dagger 9.9 0.8 53 19 20 24.1 97.72     LegendNANA
21:00 Legend Double Dagger 9.7 1.4 56 20 25 24.1 97.73     LegendNANA
22:00 Legend Double Dagger 9.7 0.6 53 19 31 24.1 97.71     Cloudy
23:00 Legend Double Dagger 9.6 0.8 54 19 28 24.1 97.68     LegendNANA

Notes on Data Quality.

Legend

  • E = Estimated
  • M = Missing
  • NA = Not Available
  • ‡ = Partner data that is not subject to review by the National Climate Archives
Date modified: